This demonstration page uses our WeatherBlox Daily Observations layout. Learn more.

Left ArrowRight Arrow

53.62937, 11.41316

Hourly Observations for July 8, 2022

Temp ( °F °C ) Dew Point ( °F °C ) Humidity (%) Winds ( mph kmh ) Pressure ( in mb ) Visibility ( mi km ) Precip ( " mm )
12:20 am 00:20 Mostly Clear 57 14 54 12 88 88 WNW 9 15 30.18 1022 30 48 N/A
12:50 am 00:50 Mostly Clear 57 14 54 12 88 88 WNW 9 15 30.21 1023 30 48 N/A
1:20 am 01:20 Mostly Cloudy 55 13 54 12 94 94 WNW 8 13 30.21 1023 30 48 N/A
1:50 am 01:50 Mostly Cloudy 55 13 52 11 88 88 WNW 8 13 30.21 1023 30 48 N/A
2:20 am 02:20 Mostly Clear 55 13 52 11 88 88 WNW 7 11 30.24 1024 30 48 N/A
2:50 am 02:50 Mostly Cloudy 55 13 52 11 88 88 WNW 8 13 30.24 1024 30 48 N/A
3:20 am 03:20 Mostly Clear 55 13 52 11 88 88 W 7 11 30.24 1024 30 48 N/A
3:50 am 03:50 Mostly Cloudy 55 13 52 11 88 88 W 7 11 30.24 1024 30 48 N/A
4:20 am 04:20 Mostly Clear 54 12 50 10 88 88 W 8 13 30.24 1024 30 48 N/A
4:50 am 04:50 Mostly Clear 55 13 50 10 82 82 WNW 9 15 30.24 1024 30 48 N/A
5:20 am 05:20 Mostly Cloudy 55 13 50 10 82 82 W 9 15 30.27 1025 30 48 N/A
5:50 am 05:50 Mostly Cloudy 55 13 52 11 88 88 W 6 9 30.27 1025 30 48 N/A
6:20 am 06:20 Mostly Cloudy 55 13 52 11 88 88 WNW 8 13 30.27 1025 30 48 N/A
6:50 am 06:50 Mostly Cloudy 57 14 52 11 82 82 WNW 9 15 30.27 1025 30 48 N/A
7:20 am 07:20 Partly Cloudy 57 14 52 11 82 82 WNW 9 15 30.27 1025 30 48 N/A
7:50 am 07:50 Partly Cloudy 59 15 52 11 77 77 WNW 12 19 30.27 1025 30 48 N/A
8:20 am 08:20 Mostly Cloudy 59 15 52 11 77 77 NW 13 20 30.30 1026 30 48 N/A
8:50 am 08:50 Mostly Cloudy 59 15 50 10 72 72 NW 15 24 30.30 1026 30 48 N/A
9:20 am 09:20 Partly Cloudy 61 16 52 11 72 72 WNW 15 24 30.30 1026 30 48 N/A
9:50 am 09:50 Mostly Cloudy 61 16 54 12 77 77 NW 14 22 30.30 1026 30 48 N/A
10:20 am 10:20 Mostly Cloudy 61 16 54 12 77 77 WNW 12 19 30.30 1026 30 48 N/A
10:50 am 10:50 Cloudy 61 16 54 12 77 77 WNW 10 17 30.30 1026 30 48 N/A
11:20 am 11:20 Cloudy with Light Rain 61 16 55 13 83 83 W 10 17 30.30 1026 30 48 N/A
11:50 am 11:50 Mostly Cloudy 63 17 57 14 83 83 WNW 12 19 30.30 1026 30 48 N/A
12:20 pm 12:20 Mostly Cloudy 63 17 55 13 77 77 WNW 12 19 30.30 1026 30 48 N/A
12:50 pm 12:50 Cloudy 64 18 57 14 78 78 WNW 13 20 30.30 1026 30 48 N/A
1:20 pm 13:20 Mostly Cloudy 66 19 57 14 73 73 WNW 12 19 30.30 1026 30 48 N/A
1:50 pm 13:50 Partly Cloudy 68 20 57 14 69 69 WNW 12 19 30.30 1026 30 48 N/A
2:20 pm 14:20 Partly Cloudy 66 19 55 13 68 68 WNW 10 17 30.30 1026 30 48 N/A
2:50 pm 14:50 Partly Cloudy 68 20 55 13 64 64 W 14 22 30.27 1025 30 48 N/A
3:20 pm 15:20 Partly Cloudy 70 21 55 13 60 60 WNW 14 22 30.27 1025 30 48 N/A
3:50 pm 15:50 Partly Cloudy 70 21 55 13 60 60 WNW 13 20 30.27 1025 30 48 N/A
4:20 pm 16:20 Partly Cloudy 70 21 54 12 57 57 WNW 13 20 30.27 1025 30 48 N/A
4:50 pm 16:50 Mostly Cloudy 70 21 54 12 57 57 NW 14 22 30.27 1025 30 48 N/A
5:20 pm 17:20 Partly Cloudy 70 21 54 12 57 57 WNW 13 20 30.27 1025 30 48 N/A
5:50 pm 17:50 Partly Cloudy 70 21 54 12 57 57 WNW 14 22 30.27 1025 30 48 N/A
6:20 pm 18:20 Mostly Sunny 68 20 54 12 60 60 WNW 14 22 30.27 1025 30 48 N/A
6:50 pm 18:50 Partly Cloudy 68 20 54 12 60 60 NW 14 22 30.27 1025 30 48 N/A
7:20 pm 19:20 Mostly Sunny 68 20 52 11 56 56 WNW 13 20 30.27 1025 30 48 N/A
7:50 pm 19:50 Mostly Sunny 66 19 52 11 60 60 WNW 12 19 30.27 1025 30 48 N/A
8:20 pm 20:20 Mostly Sunny 64 18 50 10 60 60 WNW 12 19 30.27 1025 7 11 N/A
8:50 pm 20:50 Mostly Sunny 63 17 50 10 64 64 WNW 12 19 30.27 1025 7 11 N/A
9:20 pm 21:20 Mostly Sunny 61 16 52 11 72 72 WNW 9 15 30.27 1025 7 11 N/A
9:50 pm 21:50 Mostly Clear 59 15 50 10 72 72 W 7 11 30.30 1026 7 11 N/A
10:20 pm 22:20 Mostly Clear 57 14 52 11 82 82 W 5 7 30.30 1026 30 48 N/A
10:50 pm 22:50 Mostly Clear 57 14 52 11 82 82 W 3 6 30.27 1025 30 48 N/A
11:20 pm 23:20 Partly Cloudy 55 13 52 11 88 88 WNW 6 9 30.27 1025 30 48 N/A
11:50 pm 23:50 Cloudy 57 14 52 11 82 82 WNW 8 13 30.27 1025 30 48 N/A

Powered by AerisWeather